• In Italy
  • List of Countries
  • For 7 days
  • Water Temperature
  • Satellite Maps
  • Weather Map
  • Weather Widgets
  • user-avatar
    Login

    Hourly Weather Neuquén

    Today, 20 January, Saturday

    Time Temperature Precipitation Wind Pressure Humidity
    00:00 +30°C° 0 mm 4 mps 732 mmHg 24%
    01:00 +29°C° 0 mm 5 mps 732 mmHg 25%
    02:00 +29°C° 0 mm 4 mps 731 mmHg 27%
    03:00 +28°C° 0 mm 4 mps 731 mmHg 28%
    04:00 +27°C° 0 mm 3 mps 731 mmHg 29%
    05:00 +28°C° 0 mm 3 mps 731 mmHg 28%
    06:00 +29°C° 0 mm 3 mps 731 mmHg 26%
    07:00 +30°C° 0 mm 3 mps 731 mmHg 25%
    08:00 +33°C° 0 mm 4 mps 731 mmHg 22%
    09:00 +35°C° 0 mm 5 mps 731 mmHg 19%
    10:00 +37°C° 0 mm 5 mps 731 mmHg 16%
    11:00 +39°C° 0 mm 5 mps 731 mmHg 15%
    12:00 +39°C° 0 mm 5 mps 730 mmHg 15%
    13:00 +40°C° 0 mm 5 mps 730 mmHg 14%
    14:00 +40°C° 0 mm 4 mps 729 mmHg 14%
    15:00 +41°C° 0 mm 4 mps 729 mmHg 13%
    16:00 +41°C° 0 mm 4 mps 728 mmHg 13%
    17:00 +40°C° 0 mm 4 mps 728 mmHg 13%
    18:00 +40°C° 0 mm 5 mps 728 mmHg 14%
    19:00 +39°C° 0 mm 6 mps 728 mmHg 14%
    20:00 +38°C° 0 mm 6 mps 728 mmHg 15%
    21:00 +38°C° 0 mm 6 mps 728 mmHg 16%
    22:00 +36°C° 0 mm 7 mps 729 mmHg 16%
    23:00 +35°C° 0 mm 6 mps 728 mmHg 18%

    Tomorrow, 21 January, Sunday

    Time Temperature Precipitation Wind Pressure Humidity
    00:00 +34°C° 0 mm 6 mps 728 mmHg 19%
    01:00 +33°C° 0 mm 6 mps 728 mmHg 20%
    02:00 +32°C° 0 mm 5 mps 728 mmHg 22%
    03:00 +32°C° 0 mm 5 mps 728 mmHg 24%
    04:00 +30°C° 0 mm 4 mps 727 mmHg 26%
    05:00 +32°C° 0 mm 4 mps 728 mmHg 25%
    06:00 +32°C° 0 mm 4 mps 728 mmHg 25%
    07:00 +33°C° 0 mm 4 mps 728 mmHg 24%
    08:00 +35°C° 0 mm 3 mps 728 mmHg 22%
    09:00 +36°C° 0 mm 3 mps 728 mmHg 19%
    10:00 +38°C° 0 mm 3 mps 728 mmHg 17%
    11:00 +39°C° 0 mm 3 mps 727 mmHg 16%
    12:00 +40°C° 0 mm 3 mps 727 mmHg 14%
    13:00 +41°C° 0 mm 4 mps 726 mmHg 13%
    14:00 +41°C° 0 mm 4 mps 726 mmHg 13%
    15:00 +41°C° 0 mm 4 mps 725 mmHg 13%
    16:00 +41°C° 0 mm 4 mps 725 mmHg 13%
    17:00 +41°C° 0 mm 4 mps 725 mmHg 14%
    18:00 +40°C° 0 mm 5 mps 725 mmHg 16%
    19:00 +39°C° 0 mm 5 mps 725 mmHg 17%
    20:00 +36°C° 0.1 mm 7 mps 725 mmHg 21%
    21:00 +35°C° 0.1 mm 8 mps 725 mmHg 25%
    22:00 +33°C° 0.1 mm 10 mps 725 mmHg 30%
    23:00 +32°C° 0.2 mm 9 mps 725 mmHg 28%

    Day after tomorrow, 22 January, Monday

    Time Temperature Precipitation Wind Pressure Humidity
    00:00 +31°C° 0.2 mm 8 mps 725 mmHg 27%
    01:00 +29°C° 0.2 mm 8 mps 725 mmHg 26%
    02:00 +29°C° 0 mm 8 mps 725 mmHg 25%
    03:00 +28°C° 0 mm 8 mps 725 mmHg 24%
    04:00 +28°C° 0 mm 8 mps 724 mmHg 23%
    05:00 +28°C° 0 mm 8 mps 725 mmHg 21%
    06:00 +29°C° 0 mm 9 mps 725 mmHg 19%
    07:00 +29°C° 0 mm 9 mps 725 mmHg 18%
    08:00 +31°C° 0 mm 9 mps 725 mmHg 15%
    09:00 +33°C° 0 mm 9 mps 725 mmHg 13%
    10:00 +34°C° 0 mm 8 mps 725 mmHg 10%
    11:00 +35°C° 0 mm 9 mps 725 mmHg 9%
    12:00 +37°C° 0 mm 9 mps 725 mmHg 8%
    13:00 +38°C° 0 mm 9 mps 724 mmHg 7%
    14:00 +39°C° 0 mm 9 mps 724 mmHg 7%
    15:00 +39°C° 0 mm 9 mps 724 mmHg 7%
    16:00 +39°C° 0 mm 9 mps 724 mmHg 7%
    17:00 +38°C° 0 mm 9 mps 724 mmHg 8%
    18:00 +35°C° 0 mm 9 mps 724 mmHg 9%
    19:00 +34°C° 0 mm 10 mps 725 mmHg 11%
    20:00 +33°C° 0 mm 10 mps 725 mmHg 13%
    21:00 +31°C° 0 mm 10 mps 725 mmHg 14%
    22:00 +29°C° 0 mm 11 mps 726 mmHg 16%
    23:00 +28°C° 0 mm 10 mps 726 mmHg 17%

    23 January, Tuesday

    Time Temperature Precipitation Wind Pressure Humidity
    00:00 +27°C° 0 mm 10 mps 726 mmHg 18%
    01:00 +26°C° 0 mm 9 mps 726 mmHg 20%
    02:00 +24°C° 0 mm 9 mps 726 mmHg 20%
    03:00 +24°C° 0 mm 8 mps 726 mmHg 20%
    04:00 +23°C° 0 mm 8 mps 726 mmHg 20%
    05:00 +24°C° 0 mm 8 mps 727 mmHg 20%
    06:00 +24°C° 0 mm 8 mps 727 mmHg 19%
    07:00 +26°C° 0 mm 8 mps 728 mmHg 18%
    08:00 +27°C° 0 mm 7 mps 728 mmHg 16%
    09:00 +28°C° 0 mm 7 mps 728 mmHg 14%
    10:00 +30°C° 0 mm 7 mps 728 mmHg 12%
    11:00 +32°C° 0 mm 7 mps 728 mmHg 11%
    12:00 +33°C° 0 mm 7 mps 728 mmHg 10%
    13:00 +34°C° 0 mm 7 mps 728 mmHg 9%
    14:00 +34°C° 0 mm 7 mps 728 mmHg 9%
    15:00 +35°C° 0 mm 7 mps 727 mmHg 8%
    16:00 +35°C° 0 mm 7 mps 727 mmHg 8%
    17:00 +34°C° 0 mm 7 mps 728 mmHg 8%
    18:00 +33°C° 0 mm 7 mps 728 mmHg 9%
    19:00 +33°C° 0 mm 6 mps 729 mmHg 9%
    20:00 +30°C° 0 mm 7 mps 730 mmHg 13%
    21:00 +29°C° 0 mm 8 mps 731 mmHg 17%
    22:00 +27°C° 0 mm 9 mps 731 mmHg 21%
    23:00 +26°C° 0 mm 9 mps 732 mmHg 24%

    24 January, Wednesday

    Time Temperature Precipitation Wind Pressure Humidity
    00:00 +24°C° 0 mm 9 mps 732 mmHg 26%
    01:00 +23°C° 0 mm 9 mps 733 mmHg 29%
    02:00 +22°C° 0 mm 9 mps 734 mmHg 34%
    03:00 +21°C° 0 mm 10 mps 734 mmHg 39%
    04:00 +19°C° 0 mm 10 mps 735 mmHg 44%
    05:00 +19°C° 0 mm 10 mps 736 mmHg 46%
    06:00 +19°C° 0 mm 10 mps 737 mmHg 49%
    07:00 +18°C° 0 mm 10 mps 737 mmHg 51%
    08:00 +21°C° 0 mm 9 mps 737 mmHg 45%
    09:00 +22°C° 0 mm 9 mps 738 mmHg 39%
    10:00 +24°C° 0 mm 9 mps 738 mmHg 32%
    11:00 +26°C° 0 mm 9 mps 737 mmHg 29%
    12:00 +27°C° 0 mm 9 mps 737 mmHg 25%
    13:00 +29°C° 0 mm 9 mps 736 mmHg 21%
    14:00 +29°C° 0 mm 9 mps 736 mmHg 20%
    15:00 +29°C° 0 mm 9 mps 735 mmHg 19%
    16:00 +31°C° 0 mm 9 mps 735 mmHg 18%
    17:00 +29°C° 0 mm 9 mps 735 mmHg 18%
    18:00 +29°C° 0 mm 9 mps 735 mmHg 19%
    19:00 +28°C° 0 mm 9 mps 735 mmHg 19%
    20:00 +27°C° 0 mm 9 mps 735 mmHg 19%
    21:00 +27°C° 0 mm 9 mps 735 mmHg 20%
    22:00 +26°C° 0 mm 9 mps 735 mmHg 20%
    23:00 +24°C° 0 mm 9 mps 735 mmHg 25%

    25 January, Thursday

    Time Temperature Precipitation Wind Pressure Humidity
    00:00 +23°C° 0 mm 9 mps 735 mmHg 31%
    01:00 +22°C° 0 mm 9 mps 735 mmHg 36%
    02:00 +21°C° 0 mm 9 mps 735 mmHg 39%
    03:00 +19°C° 0 mm 9 mps 734 mmHg 42%
    04:00 +18°C° 0 mm 8 mps 734 mmHg 44%
    05:00 +20°C° 0.1 mm 8 mps 734 mmHg 44%
    06:00 +19°C° 0.1 mm 9 mps 735 mmHg 43%
    07:00 +21°C° 0.1 mm 9 mps 735 mmHg 42%
    08:00 +23°C° 0.1 mm 9 mps 734 mmHg 38%
    09:00 +24°C° 0.1 mm 9 mps 734 mmHg 34%
    10:00 +27°C° 0.1 mm 9 mps 734 mmHg 31%
    11:00 +29°C° 0 mm 8 mps 733 mmHg 29%
    12:00 +31°C° 0 mm 8 mps 732 mmHg 28%
    13:00 +32°C° 0 mm 8 mps 732 mmHg 26%
    14:00 +33°C° 0 mm 7 mps 731 mmHg 27%
    15:00 +33°C° 0 mm 7 mps 730 mmHg 27%
    16:00 +33°C° 0 mm 6 mps 730 mmHg 27%
    17:00 +32°C° 0.5 mm 7 mps 730 mmHg 32%
    18:00 +31°C° 0.5 mm 8 mps 730 mmHg 38%
    19:00 +29°C° 0.5 mm 9 mps 729 mmHg 43%
    20:00 +28°C° 0.5 mm 9 mps 730 mmHg 46%
    21:00 +27°C° 0.5 mm 8 mps 730 mmHg 49%
    22:00 +26°C° 0.5 mm 8 mps 730 mmHg 52%
    23:00 +24°C° 0.3 mm 7 mps 730 mmHg 50%
    Show more